GFSSW_prec_cloud_159.txt.gz
Cloud_Cover
0 0 0 0 1 0 0 0 5 6 53 15 19 46 17 5 1 0 0 0 2 0 0 0 0 0 0 0 0 0 0 0 3 0 0 0 0 0 0 38 20 4 6 87 88
3 4 6 0 6 1 6 4 2 0 0 0 0 0 1 5 5 1 2 0 0 0 0 0 0 0 0 0 0 0 0 0 0 0 0 0 0 3 1 0 1 85 32 4 84
0 0 1 11 2 32 46 1 14 4 0 0 0 0 0 0 2 0 5 3 0 0 0 0 0 0 0 0 0 0 0 0 0 0 0 0 0 0 12 3 0 0 9 20 98
0 0 0 3 20 52 100 81 7 3 0 0 0 0 0 0 0 0 0 0 0 0 0 0 0 0 0 0 0 0 0 0 0 0 0 0 0 0 0 7 16 0 0 0 72
0 0 0 0 20 38 29 19 12 6 2 0 3 0 0 0 0 0 0 0 0 0 0 0 0 0 0 0 0 0 0 0 0 0 0 0 0 0 0 0 2 4 0 0 0
0 0 0 0 0 16 27 14 2 0 0 0 0 0 0 0 0 0 0 0 0 0 0 0 0 0 0 0 0 0 0 0 0 0 0 0 0 0 0 0 1 0 0 0 0
0 0 0 0 0 0 0 0 0 0 0 0 0 0 0 0 0 0 0 0 0 0 0 0 0 0 0 0 0 0 0 0 0 0 0 0 0 0 0 0 0 0 0 0 0
0 0 0 2 0 0 0 0 0 0 0 0 0 0 0 0 0 0 0 0 0 0 0 0 0 0 0 0 0 0 0 0 0 0 0 0 0 0 0 0 0 0 0 0 0
0 0 0 0 0 0 0 0 0 0 0 0 0 0 0 0 0 0 0 0 0 0 0 0 0 0 0 0 0 0 0 0 0 0 0 0 0 0 0 0 0 0 0 0 0
0 0 0 0 0 0 0 0 0 0 0 0 0 0 0 0 0 0 0 0 0 0 0 0 0 0 0 0 0 0 0 0 0 0 0 0 0 0 0 5 5 37 43 0 0
0 0 0 0 0 0 0 0 0 0 0 0 0 0 0 0 0 0 0 0 0 0 0 0 0 3 1 2 4 1 2 16 2 0 0 0 0 0 0 7 97 7 5 6 0
0 0 0 0 0 0 5 0 0 0 0 0 0 0 0 0 0 0 0 0 0 0 0 0 0 0 5 75 94 5 6 1 0 0 0 0 0 0 0 10 100 100 83 0 0
0 0 0 0 0 0 0 0 0 0 0 0 0 0 0 0 0 0 0 0 0 0 0 0 0 0 3 3 5 1 36 5 48 1 2 22 0 0 2 25 63 45 5 0 0
0 0 0 0 0 0 0 0 0 0 0 0 0 0 0 0 0 0 0 0 0 0 0 0 2 68 52 77 13 0 0 5 5 0 0 96 29 0 0 11 100 100 97 5 0
0 0 0 0 0 0 0 0 0 0 0 0 0 0 0 0 0 0 0 0 4 49 50 3 4 11 79 6 94 42 100 0 5 5 45 100 78 0 67 85 53 46 91 100 8
0 0 0 0 0 0 0 0 0 0 0 0 0 0 0 0 0 0 0 55 98 95 2 5 4 4 0 5 56 16 90 2 2 0 14 72 79 2 48 18 0 0 5 18 1
0 0 0 0 0 0 0 0 0 0 0 0 0 0 0 0 0 0 0 0 0 3 12 4 0 2 76 55 15 58 63 77 36 4 31 66 96 55 61 98 66 1 5 2 16
0 0 0 0 0 0 0 0 0 0 0 0 0 0 0 0 0 0 3 0 1 5 6 5 95 68 8 48 97 8 100 100 97 64 54 59 54 100 21 52 92 100 36 82 28
0 0 0 0 0 0 0 0 0 0 0 0 0 0 0 3 4 5 1 57 64 100 90 63 21 46 98 85 62 62 9 10 86 38 91 85 100 12 14 100 55 45 58 33 22
0 0 0 0 0 0 0 0 0 0 0 0 3 1 4 5 5 4 5 34 35 12 43 66 87 56 48 100 80 91 45 64 13 20 9 83 100 100 100 98 46 31 74 10 67
0 0 0 0 0 0 0 0 0 0 0 4 3 15 5 5 4 5 2 14 18 68 78 100 100 82 78 92 100 100 100 100 100 97 99 82 98 100 100 56 6 48 100 92 83
0 0 0 0 0 0 0 0 0 0 4 2 2 98 98 15 5 5 20 42 100 100 100 99 100 100 100 94 100 100 100 100 100 100 100 100 100 100 100 19 46 100 100 76 74
0 0 0 0 0 0 0 0 0 0 0 0 5 52 24 93 64 73 8 24 6 90 100 100 100 100 100 100 100 100 100 100 100 100 100 100 100 100 100 80 67 100 100 94 100
0 0 0 0 0 0 0 0 2 5 0 3 1 68 100 43 39 51 50 67 91 100 100 100 100 100 100 100 100 100 100 100 100 100 100 100 92 100 98 68 35 100 100 62 91
4 3 5 3 0 0 0 0 0 0 0 3 5 9 92 17 5 5 5 8 66 78 100 100 100 100 100 100 100 100 100 100 100 100 100 100 100 100 100 88 82 26 3 14 75
20 65 7 0 0 0 0 0 0 0 0 36 86 47 71 24 11 24 5 40 87 37 100 99 100 100 100 100 100 100 100 100 100 100 100 100 100 100 100 100 92 68 15 6 100
8 4 25 4 4 0 0 0 0 0 0 3 11 62 5 3 3 2 26 74 100 79 76 100 100 100 100 100 100 100 100 100 100 100 100 100 100 28 96 100 77 100 2 18 90

GFSSW_prec_cloud_162.txt.gz
Cloud_Cover
6 5 0 0 0 4 39 100 71 72 100 98 66 91 36 0 1 71 100 98 56 5 0 0 0 0 0 0 0 0 0 0 0 0 3 1 0 0 0 0 0 0 0 0 0
0 1 6 8 12 1 8 94 100 100 100 100 100 85 27 1 0 0 3 1 0 0 0 0 0 0 0 0 0 0 0 0 0 0 0 1 0 5 0 0 0 0 0 0 0
2 20 57 95 98 100 100 39 29 54 17 4 5 38 9 1 0 0 0 0 0 0 0 0 0 0 0 0 0 0 0 0 0 0 0 0 0 0 0 0 2 0 0 0 0
0 6 10 37 100 100 100 96 6 0 0 0 0 0 0 0 0 0 0 0 0 0 0 0 0 0 0 0 0 0 0 0 0 0 0 0 0 0 0 0 0 0 0 0 0
13 0 0 14 37 50 80 38 16 5 0 0 0 0 0 0 0 0 0 0 0 0 0 0 0 0 0 0 0 0 0 0 0 0 0 0 0 0 0 0 0 0 0 0 0
21 0 0 0 13 20 21 6 4 2 2 0 0 0 0 0 0 0 0 0 0 0 0 0 0 0 0 0 0 0 0 0 0 0 0 0 0 0 0 0 0 0 0 0 0
22 2 0 0 0 0 0 0 0 0 0 0 0 0 0 0 0 0 0 0 0 0 0 0 0 0 0 0 0 0 0 0 0 0 0 0 0 0 0 0 0 0 0 0 0
0 0 0 0 0 0 0 0 0 0 0 0 0 0 0 0 0 0 0 0 0 0 0 0 0 0 0 0 0 0 0 0 0 0 0 0 0 0 0 0 0 0 0 0 0
0 0 0 0 0 0 0 0 0 0 0 0 0 0 0 0 0 0 0 0 0 0 0 0 0 0 0 0 0 0 0 0 0 0 0 0 0 0 0 0 0 0 0 0 0
0 0 0 0 0 0 0 0 0 0 0 0 0 0 0 0 0 0 0 0 0 0 0 0 0 0 0 0 0 0 0 0 0 0 0 0 0 0 0 0 0 0 0 0 0
0 0 0 0 0 0 0 0 0 0 0 0 0 0 0 0 0 0 0 0 0 0 0 0 0 0 0 0 5 4 2 0 0 0 0 0 0 0 0 0 0 0 0 0 0
0 0 0 0 0 0 0 0 0 0 0 0 0 0 0 0 0 0 0 0 0 0 0 0 0 0 0 1 5 6 9 1 0 0 0 0 0 0 0 0 0 0 0 0 0
0 0 0 0 0 0 0 0 0 0 0 0 0 0 0 0 0 0 0 0 0 0 0 0 0 0 2 5 5 4 28 4 0 0 0 3 0 0 0 0 0 0 0 2 47
0 0 0 0 0 0 0 0 0 0 0 0 0 0 0 0 0 0 0 0 0 0 0 0 0 0 1 5 12 38 1 1 5 58 13 2 1 0 0 0 1 0 1 5 100
0 0 0 0 0 0 0 0 0 0 0 0 0 0 0 0 0 0 0 0 0 0 3 0 5 1 0 4 8 5 8 7 16 89 77 0 0 0 0 0 0 0 0 86 100
0 0 0 0 0 0 0 0 0 0 0 0 0 0 0 0 0 0 0 0 0 0 0 0 0 2 12 20 6 6 83 5 4 82 62 0 0 35 0 0 0 0 2 0 24
0 0 0 0 0 0 0 0 0 0 0 0 0 0 0 0 0 0 0 0 1 3 2 0 1 4 4 3 5 26 56 44 14 5 2 4 12 5 2 3 2 19 3 0 0
0 0 0 0 0 0 0 0 0 0 0 0 0 0 0 0 0 0 0 0 5 5 5 5 69 57 93 78 52 66 100 100 93 66 5 5 18 26 0 0 31 5 99 100 70
0 0 0 0 0 0 0 0 0 0 0 0 0 0 0 0 2 0 0 5 5 5 47 82 79 3 7 13 21 94 55 94 100 99 90 78 22 5 15 2 0 41 20 2 66
0 0 0 0 0 0 0 0 0 0 0 0 0 0 1 4 5 5 0 2 5 5 68 73 100 89 100 32 25 10 100 100 98 85 31 100 100 8 36 100 99 39 34 30 4
0 0 0 0 0 0 0 0 0 0 0 0 0 0 4 5 5 5 2 4 5 5 5 48 100 100 95 100 100 100 89 100 98 93 100 84 100 100 82 98 96 100 100 100 97
0 0 0 0 0 0 0 0 0 0 0 0 0 0 3 15 5 5 5 5 51 78 100 52 97 99 100 100 100 100 100 100 100 100 100 100 99 100 88 100 100 100 100 100 100
0 0 0 0 0 0 0 0 0 0 0 0 0 0 0 5 82 5 5 5 6 78 96 87 100 100 100 100 100 100 100 100 100 100 100 99 100 100 97 100 100 100 100 84 100
0 0 0 0 0 0 0 0 0 0 0 0 0 0 0 0 4 11 5 5 82 61 65 100 100 100 100 97 100 100 100 100 100 100 63 82 92 100 100 86 100 100 100 95 100
0 0 1 0 0 0 0 0 0 0 0 0 0 1 5 4 4 5 5 5 37 93 15 100 97 91 100 100 84 100 100 100 100 100 100 100 100 100 82 39 100 100 100 77 68
43 96 0 0 1 4 1 0 0 0 0 0 0 0 4 4 5 1 0 6 32 7 79 92 100 100 100 76 100 100 100 100 100 100 92 80 94 100 20 99 97 100 100 96 89
72 76 93 5 2 4 3 4 5 1 0 0 0 0 0 6 2 0 0 8 72 9 100 100 100 100 100 100 100 100 100 100 100 100 100 100 100 100 89 100 100 100 100 100 1

GFSSW_prec_cloud_165.txt.gz
Cloud_Cover
82 100 32 33 23 2 19 65 63 100 100 100 57 18 0 0 0 0 5 5 27 5 5 58 5 5 0 0 0 0 0 0 0 0 0 0 0 0 0 0 0 0 0 0 0
100 100 47 42 15 35 15 30 100 62 52 100 88 5 7 0 0 0 0 5 5 5 5 5 1 0 0 0 0 0 0 0 0 0 0 0 0 0 0 0 0 0 0 0 0
100 100 100 2 14 24 11 28 82 19 31 100 65 80 4 5 0 0 0 0 0 6 41 33 11 5 0 0 0 0 0 0 0 0 0 0 0 2 5 4 5 3 0 0 0
100 75 62 44 36 0 0 65 33 5 28 94 100 86 5 3 0 1 0 0 0 0 0 0 0 0 0 0 0 0 0 0 0 0 0 0 0 0 0 0 0 3 5 0 0
69 28 32 15 12 9 0 0 3 4 17 100 52 0 0 0 0 0 0 0 0 0 0 0 0 0 0 0 0 0 0 0 0 0 0 0 0 0 0 0 0 0 0 0 0
44 7 20 22 23 17 7 0 0 0 0 0 0 0 0 0 0 0 0 0 0 0 0 0 0 0 0 0 0 0 0 0 0 0 0 0 0 0 0 0 0 0 0 0 0
26 1 2 1 0 0 0 0 0 0 0 0 0 0 0 0 0 0 0 0 0 0 0 0 0 0 0 0 0 0 0 0 0 0 0 0 0 0 0 0 0 0 0 0 0
18 0 0 0 0 0 0 0 0 0 0 0 0 0 0 0 0 0 0 0 0 0 0 0 0 0 0 0 0 0 0 0 0 0 0 0 0 0 0 0 0 0 0 0 0
4 0 0 0 0 0 0 0 0 0 0 0 0 0 0 0 0 0 0 0 0 0 0 0 0 0 0 0 0 0 0 0 0 0 0 0 0 0 0 0 0 0 0 0 0
0 0 0 0 0 0 0 0 0 0 0 0 0 0 0 0 0 0 0 0 0 0 0 0 0 0 0 0 0 0 0 0 0 0 0 0 0 0 0 0 0 0 0 0 0
10 0 0 0 0 0 0 0 0 0 0 0 0 0 0 0 0 0 0 0 0 0 0 0 0 0 0 0 0 0 0 0 0 0 0 0 0 0 0 0 0 0 0 0 0
41 0 0 0 0 0 0 0 0 0 0 0 0 0 0 0 0 0 0 0 0 0 0 0 0 0 0 0 0 0 0 0 0 0 0 0 0 0 0 0 0 0 0 0 0
39 0 0 0 0 0 0 0 0 0 0 0 0 0 0 0 0 0 0 0 0 0 0 0 0 0 0 0 0 0 0 0 0 0 0 0 0 0 0 0 0 0 0 0 0
0 0 0 0 0 0 0 0 0 0 0 0 0 0 0 0 0 0 0 0 0 0 0 0 0 0 0 0 0 4 0 1 5 22 4 4 3 0 0 0 0 0 0 0 0
0 0 0 0 0 0 0 0 0 0 0 0 0 0 0 0 0 0 0 0 0 0 0 0 0 0 0 0 0 0 5 4 2 4 4 5 4 0 0 0 0 0 0 0 0
0 0 0 0 0 0 0 0 0 0 0 0 0 0 0 0 0 0 0 0 0 0 0 0 0 0 0 0 2 4 12 43 32 5 4 0 0 0 0 0 0 0 0 0 0
0 0 0 0 0 0 0 0 0 0 0 0 0 0 0 0 0 0 0 2 2 1 1 0 0 0 4 5 4 5 8 13 5 5 4 4 3 0 12 0 0 0 0 0 0
0 0 0 0 0 0 0 0 0 0 0 0 0 0 0 0 0 0 0 4 5 2 3 8 90 2 4 4 4 63 5 18 93 25 15 66 8 5 2 4 0 0 0 0 0
0 0 0 0 0 0 0 0 0 0 0 0 0 0 0 0 0 3 0 2 5 2 12 27 67 3 7 5 5 5 5 22 90 5 79 29 99 100 83 5 0 0 6 8 7
0 0 0 0 0 0 0 0 0 0 0 0 0 0 0 0 0 0 0 0 5 5 24 60 94 94 5 16 5 12 74 82 92 100 84 7 5 31 100 68 5 3 5 43 100
0 0 0 0 0 0 0 0 0 0 0 0 0 0 0 0 0 4 2 0 3 90 74 78 93 98 10 13 42 67 87 99 100 100 100 98 67 99 100 100 62 2 5 26 41
0 0 0 0 0 0 0 0 0 0 0 0 0 0 0 0 4 5 1 0 7 99 100 100 100 97 13 5 18 100 100 100 100 85 100 100 43 28 100 100 100 9 5 5 40
0 0 0 0 0 0 0 0 0 0 0 0 0 0 0 0 5 0 0 1 5 22 87 93 100 100 56 97 88 98 100 100 100 100 100 100 100 100 100 100 99 32 17 38 100
0 0 0 0 0 1 0 0 0 0 0 0 0 0 0 0 0 1 2 4 4 4 9 100 100 100 100 54 98 100 100 100 100 100 90 100 100 100 100 91 44 34 77 32 7
0 0 0 0 0 2 3 0 0 2 0 0 0 0 0 2 0 0 5 2 2 4 33 100 100 68 98 85 89 100 100 100 100 100 100 100 100 100 99 90 90 39 5 5 7
2 1 4 5 5 5 5 5 1 5 5 0 0 0 0 0 0 0 5 6 19 5 100 100 96 100 100 100 100 100 100 100 100 100 100 100 100 100 100 100 100 20 35 5 8
51 86 76 56 7 5 5 5 5 67 5 4 4 0 0 0 0 0 5 3 15 99 91 100 100 100 98 33 100 100 100 95 100 100 100 100 86 100 100 94 100 69 57 90 98

GFSSW_prec_cloud_168.txt.gz
Cloud_Cover
100 100 97 29 58 85 98 13 100 100 74 100 100 100 90 16 24 3 2 8 8 53 98 5 94 50 2 0 3 5 40 97 52 1 0 0 0 0 0 0 0 0 0 0 0
100 100 8 12 12 22 29 19 100 100 100 83 34 23 24 14 0 0 0 2 2 1 2 0 1 8 2 2 3 0 4 6 5 2 0 2 2 0 0 0 0 0 0 0 0
100 100 32 6 16 12 0 5 100 100 100 100 77 6 9 0 0 0 0 0 0 0 0 0 0 0 0 0 0 0 0 0 0 0 0 1 5 5 3 0 0 0 0 0 0
100 96 48 2 10 5 4 2 27 58 67 20 95 99 8 19 8 1 0 0 0 0 0 0 0 0 0 3 5 0 0 0 0 0 0 0 0 1 0 0 0 0 0 0 0
100 66 17 39 18 0 2 53 83 25 52 72 52 100 55 75 84 8 0 0 0 0 0 0 0 0 0 0 0 0 0 0 0 0 0 0 0 0 0 0 0 0 0 0 0
97 29 12 11 0 0 0 1 77 97 77 100 38 2 14 61 0 0 0 0 0 0 0 0 0 0 0 0 0 0 0 0 0 0 0 0 0 0 0 0 0 0 0 0 0
98 16 10 0 0 0 0 0 0 0 0 0 0 0 0 0 0 0 0 0 0 0 0 0 0 0 0 0 0 0 0 0 0 0 0 0 0 0 0 0 0 0 0 0 0
100 39 10 0 0 0 0 0 0 0 0 0 0 0 0 0 0 0 0 0 0 0 0 0 0 0 0 0 0 0 0 0 0 0 0 0 0 0 0 0 0 0 0 0 0
100 94 4 0 0 0 0 0 0 0 0 0 0 0 0 0 0 0 0 0 0 0 0 0 0 0 0 0 0 0 0 0 0 0 0 0 0 0 0 0 0 0 0 0 0
100 65 1 0 0 0 0 0 0 0 0 0 0 0 0 0 0 0 0 0 0 0 0 0 0 0 0 0 0 0 0 0 0 0 0 0 0 0 0 0 0 0 0 0 0
100 12 0 0 0 0 0 0 0 0 0 0 0 0 0 0 0 0 0 0 0 0 0 0 0 0 0 0 0 0 0 0 0 0 0 0 0 0 0 0 0 0 0 0 0
100 0 0 0 0 0 0 0 0 0 0 0 0 0 0 0 0 0 0 0 0 0 0 0 0 0 0 0 0 0 0 0 0 0 0 0 0 0 0 0 0 0 0 0 0
97 0 0 0 0 0 0 0 0 0 0 0 0 0 0 0 0 0 0 0 0 0 0 0 0 0 0 0 0 0 0 0 0 0 0 0 0 0 0 0 0 0 0 0 0
56 0 0 0 0 0 0 0 0 0 0 0 0 0 0 0 0 0 0 0 0 0 0 0 0 0 0 0 0 0 0 0 0 0 0 2 14 0 0 0 0 0 0 0 0
66 0 0 0 0 0 0 0 0 0 0 0 0 0 0 0 0 0 0 0 0 0 0 0 0 0 0 0 0 0 0 0 0 0 2 4 3 0 0 5 0 0 0 0 0
48 0 0 0 0 0 0 0 0 0 0 0 0 0 0 0 0 0 0 0 0 0 0 0 0 0 0 0 0 0 1 0 0 0 0 0 2 0 0 0 0 0 0 0 0
19 0 0 0 0 0 0 0 0 0 0 0 0 0 0 0 0 0 0 0 0 0 0 0 0 0 0 0 0 4 5 4 5 5 4 0 3 0 1 1 0 0 0 0 0
0 0 0 0 0 0 0 0 0 0 0 0 0 0 0 0 0 0 0 0 0 0 4 22 4 0 0 5 5 0 4 10 96 6 4 4 5 0 0 0 4 0 0 0 0
0 0 0 0 0 0 0 0 0 0 0 0 0 0 0 0 0 0 0 0 0 0 5 43 9 0 2 0 5 5 5 5 92 6 81 8 0 0 10 100 7 41 19 6 0
0 0 0 0 0 0 0 0 0 0 0 0 0 0 0 0 0 0 0 0 0 4 40 71 96 3 4 0 4 10 14 8 57 89 78 4 5 5 18 28 43 34 46 91 4
0 0 0 0 0 0 0 0 0 0 0 0 0 0 0 0 0 0 0 0 0 5 100 100 86 11 6 4 5 40 29 92 96 100 99 69 7 21 5 72 86 100 90 89 97
0 0 0 0 0 0 0 0 0 0 0 0 0 0 0 0 0 0 0 0 0 13 78 78 94 72 39 2 5 100 82 100 100 72 100 100 23 89 60 99 20 99 100 100 88
0 0 0 0 0 0 0 0 0 1 0 0 0 0 0 0 0 0 0 0 0 4 5 36 98 100 68 17 48 100 100 100 86 96 100 100 22 97 99 100 98 100 100 100 92
0 0 0 0 0 0 0 3 5 4 0 0 0 0 0 0 0 0 0 0 2 0 5 100 100 100 100 20 73 98 100 100 100 100 95 94 51 98 95 83 100 100 100 100 100
0 0 0 0 0 1 5 18 4 5 4 5 0 3 4 3 0 0 0 0 0 2 5 94 100 100 92 100 70 100 100 100 100 100 100 39 89 100 54 34 100 13 100 83 6
0 0 5 4 5 5 5 3 5 5 5 5 15 11 5 3 0 2 0 1 5 4 86 100 100 100 100 17 100 100 100 100 100 77 96 99 22 100 83 49 100 13 35 75 95
15 20 5 4 5 1 5 3 5 43 4 21 16 4 0 0 0 0 0 0 0 22 100 100 100 100 100 27 100 100 100 82 100 78 100 100 88 100 100 75 66 54 100 99 98

GFSSW_prec_cloud_174.txt.gz
Cloud_Cover
4 39 25 98 100 70 10 7 2 0 0 0 0 0 0 74 6 0 0 91 77 86 98 100 100 48 100 100 100 95 17 9 5 68 1 0 0 0 0 0 0 0 0 0 0
36 17 6 14 100 100 100 29 0 0 0 0 0 0 16 89 96 16 0 91 21 5 16 100 100 100 100 92 100 100 51 12 5 1 0 0 0 0 0 0 0 0 0 0 0
16 13 27 14 37 100 100 100 100 82 97 100 99 34 77 32 5 0 1 0 13 98 100 100 71 6 58 54 10 8 2 0 0 0 0 0 0 0 0 0 0 0 0 0 0
38 0 6 8 10 97 100 96 100 100 100 100 100 100 64 9 2 2 0 0 59 100 44 100 9 9 0 0 4 0 0 0 0 0 0 0 0 0 0 0 0 0 0 0 0
84 1 3 3 0 95 100 97 100 100 100 100 73 62 78 70 4 36 8 1 0 100 93 13 6 5 5 5 4 0 0 0 0 0 0 0 0 0 0 0 0 0 0 0 0
100 44 84 36 4 0 33 59 6 57 26 95 100 99 87 97 75 5 6 96 5 4 38 69 100 90 98 6 0 0 0 0 0 0 0 0 0 0 0 0 0 0 0 0 0
100 69 62 11 0 0 0 0 2 5 8 3 6 5 14 26 51 100 7 2 1 0 0 0 0 0 0 0 0 0 0 0 0 0 0 0 0 0 0 0 0 0 0 0 0
100 77 40 0 0 0 0 0 0 0 0 0 2 16 64 3 3 0 0 0 0 0 0 0 0 0 0 0 0 0 0 0 0 0 0 0 0 0 0 0 0 0 0 0 0
100 100 23 0 0 0 0 0 0 0 0 0 0 0 0 0 0 0 0 0 0 0 0 0 0 0 0 0 0 0 0 0 0 0 0 0 0 0 0 0 0 0 0 0 0
100 100 48 0 0 0 0 0 0 15 0 0 0 0 0 0 0 0 0 0 0 0 0 0 0 0 0 0 0 0 0 0 0 0 0 0 0 0 0 0 0 0 0 0 0
100 100 87 0 0 0 2 0 0 0 0 0 0 0 0 0 0 0 0 0 0 0 0 0 0 0 0 0 0 0 0 0 0 0 0 0 0 0 0 0 0 0 0 0 0
100 100 93 0 0 0 0 0 0 0 0 0 0 0 0 0 0 0 0 0 0 0 0 0 0 0 0 0 0 0 0 0 0 0 0 0 0 0 0 0 0 0 0 0 0
100 100 49 0 0 0 0 0 0 0 0 0 0 0 0 0 0 0 0 0 0 0 0 0 0 0 0 0 0 0 0 0 0 0 0 0 0 0 0 0 0 0 0 0 0
100 100 33 1 0 0 0 0 0 0 0 0 0 0 0 0 0 0 0 0 0 0 0 0 0 0 0 0 0 0 0 0 0 0 0 0 0 0 0 0 0 0 0 0 0
100 74 9 0 0 0 0 0 0 0 0 0 0 0 0 0 0 0 0 0 0 0 0 0 0 0 0 0 0 0 0 0 0 0 0 0 3 0 0 0 0 0 0 0 0
45 4 16 0 0 0 0 0 0 0 0 0 0 0 0 0 0 0 0 0 0 0 0 0 0 0 0 0 0 0 0 0 1 4 2 2 3 0 0 0 0 0 0 1 4
7 3 6 0 0 0 0 0 0 0 0 0 0 0 0 0 0 0 0 0 0 0 0 0 0 0 0 0 1 5 5 4 6 68 50 4 5 0 0 0 0 0 0 0 0
8 31 0 0 0 0 0 0 0 0 0 0 0 0 0 0 0 0 0 0 4 0 0 0 0 0 4 4 5 4 5 78 99 24 5 3 1 3 0 0 0 4 0 0 0
22 0 0 0 0 0 0 0 0 0 0 0 0 0 0 0 0 0 0 0 0 0 1 5 2 0 2 0 4 53 68 52 48 61 66 71 54 14 8 5 84 100 96 76 8
0 0 0 0 0 0 0 0 0 0 0 0 0 0 0 0 0 0 0 0 0 2 5 5 30 2 3 4 16 12 72 85 91 87 84 38 73 80 5 56 99 100 100 100 68
0 0 0 0 0 0 0 0 0 0 0 0 0 0 0 0 0 0 0 0 0 0 5 11 88 2 5 42 82 100 86 94 97 86 100 84 13 71 24 67 92 96 77 81 100
0 0 0 0 0 0 0 0 0 0 0 0 0 0 0 0 0 0 0 0 0 0 2 13 17 32 4 4 6 9 78 100 100 80 92 83 40 94 15 100 100 100 100 100 98
0 0 0 0 0 0 0 0 0 0 0 0 0 0 0 0 32 0 0 0 0 0 0 5 64 59 5 40 26 72 100 100 100 100 100 99 28 43 100 89 100 71 67 65 76
0 0 0 0 0 0 0 0 0 0 0 0 0 0 0 1 5 3 3 2 0 0 4 29 79 73 49 9 72 54 58 98 100 100 68 75 20 85 100 100 84 79 71 35 62
0 0 0 0 0 0 0 0 0 2 2 3 5 1 5 84 6 4 0 2 0 4 3 99 100 98 100 100 100 100 100 70 100 100 100 34 78 78 100 100 99 89 98 99 88
0 0 0 0 0 0 0 0 0 4 2 0 5 5 28 28 87 29 5 3 5 4 33 100 100 91 41 68 95 99 43 100 83 73 85 90 31 100 96 68 36 98 100 70 100
0 2 0 0 0 0 0 0 0 5 0 2 5 5 5 5 5 5 5 5 5 6 42 100 100 100 54 22 52 20 10 5 5 33 95 61 22 91 78 75 100 100 100 100 100